Language: 


Des rapports , des résumés tant et plus, au choix de chacun....


Données statistiques de la station
Quotidien Rapport Aout 3, 2017 Unités:  Métrique    Anglais   les deux
« Précédent Jour
Suivant Jour »
Quotidien Hebdomadaire Mensuel Annuel Actuel
  Haut: Bas: Moyen:
Température: 24.7 °C 16.3 °C 19.7 °C
Pt de rosée: 20.0 °C 11.0 °C 14.5 °C
Humidité: 97 % 42 % 74 %
Vitesse du vent: 45.7 km/h 0.0 km/h 16 km/h
Rafales: 54.4 km/h - -
Vent:- - WSW
Pression: 1012.1 hPa 1008.0 hPa -
Précipitation: 3.0 mm    
Historical Graphs
 
 
Données statistiques pour Aout 3, 2017
Heure Température Point de rosée Pression Vent Vitesse du vent Refales Humidité Pluie (taux horaire)
00:00 17.2 °C 16.0 °C 1011.1 hPa Calm     90 % 0.0 mm
00:05 17.2 °C 16.0 °C 1011.1 hPa Calm   1.8 km/h 91 % 0.0 mm
00:10 17.2 °C 16.0 °C 1011.1 hPa Calm   1.8 km/h 91 % 0.0 mm
00:15 17.2 °C 16.0 °C 1011.1 hPa Calm     91 % 0.3 mm
00:20 17.1 °C 16.0 °C 1011.1 hPa Calm     91 % 0.3 mm
00:25 17.1 °C 16.0 °C 1011.1 hPa Calm     92 % 0.3 mm
00:30 17.0 °C 16.0 °C 1011.1 hPa Calm   1.4 km/h 92 % 0.3 mm
00:35 17.0 °C 16.0 °C 1011.1 hPa Calm   1.4 km/h 92 % 0.3 mm
00:40 17.0 °C 16.0 °C 1011.1 hPa Calm   3.5 km/h 92 % 0.3 mm
00:45 16.9 °C 16.0 °C 1011.1 hPa Calm   4.3 km/h 93 % 0.5 mm
00:50 16.9 °C 16.0 °C 1011.1 hPa Calm   4.3 km/h 93 % 0.5 mm
00:55 16.8 °C 16.0 °C 1012.1 hPa SSW 2.6 km/h 3.5 km/h 94 % 0.5 mm
01:01 16.8 °C 16.0 °C 1012.1 hPa Calm   3.5 km/h 94 % 0.5 mm
01:06 16.8 °C 16.0 °C 1012.1 hPa Calm   2.1 km/h 94 % 0.8 mm
01:11 16.7 °C 16.0 °C 1011.1 hPa Calm     94 % 0.8 mm
01:16 16.7 °C 16.0 °C 1011.1 hPa Calm     94 % 0.8 mm
01:21 16.7 °C 16.0 °C 1011.1 hPa Calm     94 % 0.8 mm
01:26 16.6 °C 16.0 °C 1011.1 hPa Calm     94 % 0.8 mm
01:31 16.6 °C 16.0 °C 1011.1 hPa Calm     95 % 0.8 mm
01:36 16.6 °C 16.0 °C 1011.1 hPa Calm     94 % 0.8 mm
01:41 16.5 °C 16.0 °C 1011.1 hPa Calm     95 % 0.8 mm
01:46 16.5 °C 16.0 °C 1011.1 hPa Calm     95 % 0.5 mm
01:51 16.5 °C 16.0 °C 1011.1 hPa Calm     95 % 0.5 mm
01:52 16.5 °C 16.0 °C 1011.1 hPa Calm     95 % 0.5 mm
01:57 16.5 °C 16.0 °C 1012.1 hPa Calm     95 % 0.8 mm
02:02 16.5 °C 16.0 °C 1012.1 hPa Calm     95 % 0.5 mm
02:07 16.5 °C 16.0 °C 1012.1 hPa Calm     95 % 0.5 mm
02:12 16.4 °C 16.0 °C 1010.0 hPa Calm     95 % 0.5 mm
02:17 16.4 °C 16.0 °C 1010.0 hPa Calm   5.8 km/h 95 % 0.3 mm
02:22 16.4 °C 16.0 °C 1010.0 hPa Calm   5.8 km/h 95 % 0.3 mm
02:27 16.4 °C 16.0 °C 1010.0 hPa Calm   6.4 km/h 95 % 0.3 mm
02:32 16.4 °C 16.0 °C 1010.0 hPa Calm   6.4 km/h 96 % 0.3 mm
02:37 16.4 °C 16.0 °C 1010.0 hPa Calm   6.9 km/h 96 % 0.3 mm
02:42 16.4 °C 16.0 °C 1010.0 hPa Calm   6.9 km/h 96 % 0.3 mm
02:47 16.4 °C 16.0 °C 1010.0 hPa SSE 7.6 km/h 7.6 km/h 96 % 0.3 mm
02:52 16.5 °C 16.0 °C 1010.0 hPa Calm   8.7 km/h 96 % 0.3 mm
02:57 16.5 °C 16.0 °C 1010.0 hPa WNW 6.4 km/h 8.7 km/h 96 % 0.0 mm
03:02 16.5 °C 16.0 °C 1010.0 hPa Calm   6.4 km/h 96 % 0.0 mm
03:07 16.5 °C 16.0 °C 1010.0 hPa SW 3.2 km/h 6.4 km/h 95 % 0.0 mm
03:13 16.5 °C 16.0 °C 1010.0 hPa Calm   5.0 km/h 95 % 0.0 mm
03:18 16.5 °C 16.0 °C 1010.0 hPa WSW 3.5 km/h 8.7 km/h 95 % 0.0 mm
03:23 16.4 °C 16.0 °C 1010.0 hPa Calm   8.7 km/h 95 % 0.0 mm
03:28 16.4 °C 16.0 °C 1010.0 hPa Calm   3.5 km/h 95 % 0.0 mm
03:33 16.3 °C 16.0 °C 1010.0 hPa Calm   1.4 km/h 95 % 0.0 mm
03:38 16.3 °C 16.0 °C 1010.0 hPa Calm   1.4 km/h 95 % 0.0 mm
03:43 16.3 °C 16.0 °C 1009.0 hPa Calm   4.7 km/h 95 % 0.0 mm
03:48 16.4 °C 16.0 °C 1009.0 hPa Calm   6.4 km/h 96 % 0.0 mm
03:53 16.5 °C 16.0 °C 1009.0 hPa SSW 2.6 km/h 11.6 km/h 96 % 0.0 mm
03:58 16.5 °C 16.0 °C 1009.0 hPa Calm   11.6 km/h 96 % 0.0 mm
04:03 16.6 °C 16.0 °C 1009.0 hPa Calm   6.4 km/h 96 % 0.0 mm
04:08 16.6 °C 16.0 °C 1009.0 hPa Calm   6.4 km/h 96 % 0.0 mm
04:13 16.6 °C 16.0 °C 1009.0 hPa Calm   6.1 km/h 96 % 0.0 mm
04:18 16.6 °C 16.0 °C 1009.0 hPa Calm   6.1 km/h 96 % 0.0 mm
04:23 16.6 °C 16.0 °C 1009.0 hPa Calm   5.5 km/h 96 % 0.0 mm
04:28 16.6 °C 16.0 °C 1008.0 hPa Calm   4.3 km/h 96 % 0.0 mm
04:33 16.6 °C 16.0 °C 1008.0 hPa South 1.4 km/h 4.3 km/h 96 % 0.0 mm
04:38 16.6 °C 16.0 °C 1008.0 hPa Calm   4.7 km/h 96 % 0.0 mm
04:43 16.6 °C 16.0 °C 1009.0 hPa Calm   5.0 km/h 96 % 0.0 mm
04:49 16.6 °C 16.0 °C 1009.0 hPa Calm   5.0 km/h 96 % 0.0 mm
04:54 16.7 °C 16.0 °C 1009.0 hPa SSW 9.3 km/h 9.3 km/h 96 % 0.0 mm
04:59 16.7 °C 16.0 °C 1009.0 hPa SSW 6.1 km/h 9.3 km/h 96 % 0.0 mm
05:04 16.9 °C 17.0 °C 1009.0 hPa Calm   10.1 km/h 96 % 0.0 mm
05:09 17.0 °C 16.0 °C 1009.0 hPa Calm   10.1 km/h 95 % 0.0 mm
05:15 17.0 °C 16.0 °C 1009.0 hPa WSW 9.3 km/h 9.3 km/h 95 % 0.0 mm
05:20 16.9 °C 16.0 °C 1009.0 hPa SSW 5.0 km/h 9.3 km/h 95 % 0.0 mm
05:22 16.9 °C 16.0 °C 1009.0 hPa South 6.4 km/h 10.5 km/h 95 % 0.0 mm
05:24 16.9 °C 16.0 °C 1009.0 hPa SW 7.6 km/h 10.5 km/h 95 % 0.0 mm
05:25 16.9 °C 16.0 °C 1009.0 hPa South 4.7 km/h 10.5 km/h 95 % 0.0 mm
05:30 16.9 °C 16.0 °C 1008.0 hPa Calm   10.5 km/h 95 % 0.0 mm
05:37 17.0 °C 16.0 °C 1008.0 hPa SW 9.3 km/h 9.7 km/h 95 % 0.0 mm
05:42 17.1 °C 16.0 °C 1009.0 hPa SSW 6.4 km/h 10.5 km/h 95 % 0.0 mm
05:47 17.2 °C 16.0 °C 1009.0 hPa SW 8.7 km/h 13.0 km/h 94 % 0.0 mm
05:52 17.3 °C 16.0 °C 1009.0 hPa SW 1.4 km/h 13.0 km/h 94 % 0.0 mm
05:57 17.3 °C 16.0 °C 1009.0 hPa Calm   12.6 km/h 94 % 0.0 mm
06:02 17.4 °C 16.0 °C 1009.0 hPa WSW 1.8 km/h 12.6 km/h 94 % 0.0 mm
06:07 17.4 °C 16.0 °C 1009.0 hPa Calm   12.2 km/h 94 % 0.0 mm
06:12 17.5 °C 17.0 °C 1009.0 hPa SSW 12.2 km/h 12.2 km/h 94 % 0.0 mm
06:17 17.5 °C 17.0 °C 1009.0 hPa SSW 6.4 km/h 12.6 km/h 93 % 0.0 mm
06:22 17.5 °C 17.0 °C 1009.0 hPa SSE 7.9 km/h 13.0 km/h 93 % 0.0 mm
06:27 17.6 °C 17.0 °C 1009.0 hPa Calm   13.0 km/h 94 % 0.0 mm
06:32 17.7 °C 17.0 °C 1009.0 hPa South 8.7 km/h 12.6 km/h 94 % 0.0 mm
06:37 17.6 °C 17.0 °C 1009.0 hPa South 1.4 km/h 12.6 km/h 94 % 0.0 mm
06:42 17.6 °C 17.0 °C 1009.0 hPa Calm   9.3 km/h 94 % 0.0 mm
06:47 17.7 °C 17.0 °C 1009.0 hPa SW 8.7 km/h 10.5 km/h 94 % 0.0 mm
06:52 17.7 °C 17.0 °C 1009.0 hPa SW 6.9 km/h 10.5 km/h 94 % 0.0 mm
06:57 17.9 °C 17.0 °C 1009.0 hPa WSW 2.1 km/h 12.6 km/h 94 % 0.0 mm
07:02 18.0 °C 17.0 °C 1009.0 hPa WSW 7.6 km/h 12.6 km/h 94 % 0.0 mm
07:07 18.0 °C 17.0 °C 1009.0 hPa SSW 6.9 km/h 10.5 km/h 94 % 0.0 mm
07:12 18.0 °C 17.0 °C 1009.0 hPa WSW 7.9 km/h 10.5 km/h 93 % 0.0 mm
07:17 18.0 °C 17.0 °C 1009.0 hPa WSW 10.5 km/h 10.5 km/h 93 % 0.0 mm
07:22 17.9 °C 17.0 °C 1009.0 hPa South 5.8 km/h 11.1 km/h 94 % 0.0 mm
07:27 17.9 °C 17.0 °C 1009.0 hPa SSW 5.5 km/h 12.2 km/h 94 % 0.0 mm
07:32 17.8 °C 17.0 °C 1009.0 hPa SW 11.9 km/h 12.6 km/h 94 % 0.0 mm
07:37 17.8 °C 17.0 °C 1009.0 hPa SW 9.0 km/h 12.6 km/h 95 % 0.5 mm
07:42 17.7 °C 17.0 °C 1009.0 hPa SSW 5.8 km/h 12.2 km/h 95 % 0.5 mm
07:47 17.6 °C 17.0 °C 1009.0 hPa South 6.9 km/h 13.7 km/h 95 % 0.5 mm
07:52 17.5 °C 17.0 °C 1009.0 hPa South 6.1 km/h 13.7 km/h 96 % 1.3 mm
07:57 17.5 °C 17.0 °C 1009.0 hPa South 10.1 km/h 19.8 km/h 96 % 1.3 mm
08:02 17.5 °C 17.0 °C 1009.0 hPa SW 8.7 km/h 19.8 km/h 96 % 1.3 mm
08:07 17.5 °C 17.0 °C 1009.0 hPa SW 10.5 km/h 16.3 km/h 96 % 1.3 mm
08:12 17.6 °C 17.0 °C 1009.0 hPa SSW 10.5 km/h 16.3 km/h 97 % 1.3 mm
08:17 17.6 °C 17.0 °C 1009.0 hPa SSW 10.1 km/h 12.2 km/h 97 % 1.3 mm
08:22 17.7 °C 17.0 °C 1009.0 hPa SW 13.0 km/h 15.1 km/h 97 % 1.3 mm
08:27 17.9 °C 18.0 °C 1009.0 hPa SSW 8.7 km/h 15.1 km/h 97 % 1.3 mm
08:32 17.9 °C 18.0 °C 1009.0 hPa SW 10.1 km/h 14.0 km/h 97 % 1.3 mm
08:37 18.0 °C 18.0 °C 1009.0 hPa SSW 10.1 km/h 17.2 km/h 97 % 0.8 mm
08:42 18.1 °C 18.0 °C 1009.0 hPa SW 9.7 km/h 17.7 km/h 97 % 0.8 mm
08:47 18.3 °C 18.0 °C 1009.0 hPa SSW 9.0 km/h 17.7 km/h 97 % 0.8 mm
08:52 18.4 °C 18.0 °C 1009.0 hPa SW 16.6 km/h 16.9 km/h 97 % 0.3 mm
08:57 18.6 °C 18.0 °C 1009.0 hPa SW 16.3 km/h 20.1 km/h 97 % 0.3 mm
09:02 18.6 °C 18.0 °C 1009.0 hPa SW 12.2 km/h 20.1 km/h 96 % 0.3 mm
09:07 18.6 °C 18.0 °C 1009.0 hPa SW 8.7 km/h 20.1 km/h 96 % 0.3 mm
09:13 18.7 °C 18.0 °C 1009.0 hPa South 13.7 km/h 16.3 km/h 96 % 0.5 mm
09:18 18.8 °C 18.0 °C 1009.0 hPa South 10.5 km/h 16.6 km/h 96 % 0.5 mm
09:23 18.9 °C 19.0 °C 1009.0 hPa WSW 19.8 km/h 19.8 km/h 96 % 0.5 mm
09:28 19.2 °C 19.0 °C 1009.0 hPa West 14.0 km/h 19.8 km/h 96 % 0.5 mm
09:33 19.9 °C 20.0 °C 1009.0 hPa West 14.0 km/h 19.8 km/h 96 % 0.5 mm
09:38 20.3 °C 19.0 °C 1009.0 hPa WSW 28.5 km/h 28.5 km/h 94 % 0.3 mm
09:43 20.3 °C 19.0 °C 1009.0 hPa West 23.3 km/h 36.4 km/h 90 % 0.3 mm
09:48 20.4 °C 18.0 °C 1009.0 hPa West 23.0 km/h 36.4 km/h 88 % 0.3 mm
09:53 20.3 °C 17.0 °C 1009.0 hPa WSW 23.8 km/h 38.9 km/h 81 % 0.3 mm
09:58 20.1 °C 17.0 °C 1009.0 hPa WSW 17.2 km/h 38.9 km/h 81 % 0.3 mm
10:03 20.1 °C 16.0 °C 1009.0 hPa WSW 24.8 km/h 30.9 km/h 79 % 0.3 mm
10:08 20.0 °C 16.0 °C 1009.0 hPa SSW 24.8 km/h 32.3 km/h 77 % 0.3 mm
10:13 20.1 °C 16.0 °C 1009.0 hPa West 21.2 km/h 35.6 km/h 77 % 0.0 mm
10:18 20.2 °C 16.0 °C 1009.0 hPa WSW 20.1 km/h 35.6 km/h 76 % 0.0 mm
10:23 20.5 °C 17.0 °C 1009.0 hPa WSW 21.2 km/h 31.4 km/h 78 % 0.0 mm
10:28 20.3 °C 17.0 °C 1009.0 hPa West 21.2 km/h 28.8 km/h 79 % 0.0 mm
10:33 20.2 °C 17.0 °C 1009.0 hPa WSW 23.8 km/h 27.4 km/h 79 % 0.0 mm
10:39 20.1 °C 17.0 °C 1009.0 hPa West 21.2 km/h 24.8 km/h 80 % 0.0 mm
10:44 20.1 °C 17.0 °C 1010.0 hPa West 21.9 km/h 24.8 km/h 80 % 0.0 mm
10:49 20.2 °C 16.0 °C 1010.0 hPa SW 16.6 km/h 24.8 km/h 78 % 0.0 mm
10:54 20.2 °C 16.0 °C 1010.0 hPa WSW 20.6 km/h 25.9 km/h 76 % 0.0 mm
10:59 20.4 °C 15.0 °C 1010.0 hPa WSW 16.3 km/h 37.8 km/h 73 % 0.0 mm
11:04 20.9 °C 16.0 °C 1010.0 hPa West 20.1 km/h 37.8 km/h 72 % 0.0 mm
11:09 21.2 °C 16.0 °C 1010.0 hPa WNW 19.8 km/h 31.7 km/h 70 % 0.0 mm
11:14 21.1 °C 16.0 °C 1010.0 hPa WSW 12.6 km/h 36.4 km/h 71 % 0.0 mm
11:19 21.1 °C 15.0 °C 1010.0 hPa WSW 27.0 km/h 36.4 km/h 70 % 0.0 mm
11:24 21.3 °C 15.0 °C 1010.0 hPa West 28.0 km/h 30.6 km/h 68 % 0.0 mm
11:29 21.3 °C 15.0 °C 1010.0 hPa WSW 30.9 km/h 41.0 km/h 67 % 0.0 mm
11:34 21.1 °C 14.0 °C 1010.0 hPa WSW 16.9 km/h 41.0 km/h 66 % 0.0 mm
11:39 21.1 °C 14.0 °C 1010.0 hPa WSW 23.8 km/h 37.5 km/h 66 % 0.0 mm
11:44 21.1 °C 14.0 °C 1010.0 hPa West 30.2 km/h 37.5 km/h 65 % 0.0 mm
11:45 21.1 °C 14.0 °C 1010.0 hPa West 30.2 km/h 37.5 km/h 65 % 0.0 mm
11:50 20.8 °C 14.0 °C 1010.0 hPa WSW 17.2 km/h 40.7 km/h 64 % 0.0 mm
12:00 22.5 °C 15.0 °C 1010.0 hPa SW 20.6 km/h 38.1 km/h 63 % 0.0 mm
12:05 22.4 °C 14.0 °C 1010.0 hPa WSW 20.9 km/h 41.0 km/h 61 % 0.0 mm
12:10 21.7 °C 14.0 °C 1010.0 hPa West 20.1 km/h 41.0 km/h 62 % 0.0 mm
12:15 22.7 °C 15.0 °C 1010.0 hPa WSW 31.4 km/h 43.1 km/h 60 % 0.0 mm
12:20 22.2 °C 14.0 °C 1010.0 hPa WSW 16.9 km/h 43.1 km/h 58 % 0.0 mm
12:25 21.9 °C 14.0 °C 1010.0 hPa WSW 24.8 km/h 43.1 km/h 61 % 0.0 mm
12:30 22.4 °C 14.0 °C 1010.0 hPa West 35.6 km/h 40.4 km/h 58 % 0.0 mm
12:35 22.9 °C 15.0 °C 1010.0 hPa West 27.4 km/h 37.8 km/h 59 % 0.0 mm
12:40 22.1 °C 14.0 °C 1010.0 hPa West 24.5 km/h 41.0 km/h 59 % 0.0 mm
12:45 21.9 °C 14.0 °C 1010.0 hPa WSW 20.6 km/h 41.0 km/h 62 % 0.0 mm
12:50 21.7 °C 13.0 °C 1010.0 hPa West 22.7 km/h 41.7 km/h 57 % 0.0 mm
12:55 22.0 °C 13.0 °C 1010.0 hPa SW 41.0 km/h 41.7 km/h 54 % 0.0 mm
13:00 22.2 °C 13.0 °C 1010.0 hPa West 36.7 km/h 43.6 km/h 53 % 0.0 mm
13:05 22.4 °C 13.0 °C 1010.0 hPa WSW 23.8 km/h 43.6 km/h 53 % 0.0 mm
13:10 23.1 °C 13.0 °C 1011.1 hPa SW 20.6 km/h 42.2 km/h 52 % 0.0 mm
13:15 23.3 °C 13.0 °C 1011.1 hPa WSW 16.6 km/h 38.1 km/h 51 % 0.0 mm
13:20 23.1 °C 12.0 °C 1011.1 hPa WSW 31.4 km/h 38.5 km/h 49 % 0.0 mm
13:25 22.6 °C 12.0 °C 1011.1 hPa WSW 36.7 km/h 41.0 km/h 50 % 0.0 mm
13:30 22.4 °C 12.0 °C 1011.1 hPa West 25.3 km/h 43.6 km/h 50 % 0.0 mm
13:35 23.0 °C 13.0 °C 1011.1 hPa West 24.8 km/h 43.6 km/h 51 % 0.0 mm
13:40 22.6 °C 12.0 °C 1011.1 hPa WSW 32.0 km/h 40.4 km/h 49 % 0.0 mm
13:45 22.8 °C 13.0 °C 1011.1 hPa SW 27.0 km/h 40.4 km/h 52 % 0.0 mm
13:50 22.8 °C 13.0 °C 1011.1 hPa WSW 27.7 km/h 38.9 km/h 53 % 0.0 mm
13:55 22.4 °C 12.0 °C 1011.1 hPa WSW 32.0 km/h 46.8 km/h 52 % 0.0 mm
13:56 22.4 °C 12.0 °C 1011.1 hPa SW 35.2 km/h 46.8 km/h 52 % 0.0 mm
14:02 22.0 °C 13.0 °C 1011.1 hPa WSW 45.7 km/h 46.8 km/h 54 % 0.0 mm
14:07 22.5 °C 13.0 °C 1011.1 hPa WSW 36.4 km/h 46.8 km/h 56 % 0.0 mm
14:12 21.8 °C 13.0 °C 1012.1 hPa West 31.7 km/h 45.7 km/h 56 % 0.0 mm
14:17 22.3 °C 14.0 °C 1012.1 hPa West 16.6 km/h 40.4 km/h 58 % 0.0 mm
14:22 22.3 °C 14.0 °C 1012.1 hPa SSW 25.9 km/h 40.7 km/h 58 % 0.0 mm
14:27 22.3 °C 13.0 °C 1010.0 hPa WSW 40.7 km/h 48.3 km/h 55 % 0.0 mm
14:32 22.6 °C 13.0 °C 1010.0 hPa WSW 22.7 km/h 48.3 km/h 55 % 0.0 mm
14:37 23.2 °C 13.0 °C 1010.0 hPa WSW 20.1 km/h 53.3 km/h 52 % 0.0 mm
14:42 23.8 °C 13.0 °C 1011.1 hPa West 23.0 km/h 53.3 km/h 51 % 0.0 mm
14:47 23.8 °C 13.0 °C 1011.1 hPa SW 25.9 km/h 45.1 km/h 49 % 0.0 mm
14:52 24.0 °C 12.0 °C 1011.1 hPa SW 45.1 km/h 45.1 km/h 45 % 0.0 mm
14:57 24.2 °C 12.0 °C 1011.1 hPa WSW 36.4 km/h 45.1 km/h 45 % 0.0 mm
15:02 24.6 °C 12.0 °C 1011.1 hPa WSW 20.6 km/h 45.1 km/h 45 % 0.0 mm
15:07 24.4 °C 12.0 °C 1011.1 hPa West 39.6 km/h 41.4 km/h 45 % 0.0 mm
15:12 24.1 °C 11.0 °C 1011.1 hPa SW 32.8 km/h 39.6 km/h 44 % 0.0 mm
15:17 24.5 °C 12.0 °C 1011.1 hPa West 28.8 km/h 40.4 km/h 44 % 0.0 mm
15:20 24.7 °C 12.0 °C 1011.1 hPa WNW 21.2 km/h 42.8 km/h 44 % 0.0 mm
15:25 24.4 °C 11.0 °C 1011.1 hPa WSW 36.4 km/h 42.8 km/h 42 % 0.0 mm
15:30 23.7 °C 11.0 °C 1011.1 hPa WSW 24.5 km/h 40.4 km/h 44 % 0.0 mm
15:35 23.4 °C 11.0 °C 1011.1 hPa WSW 37.0 km/h 40.7 km/h 44 % 0.0 mm
15:40 23.4 °C 11.0 °C 1011.1 hPa WSW 27.4 km/h 44.2 km/h 45 % 0.0 mm
15:45 23.2 °C 11.0 °C 1011.1 hPa WSW 30.6 km/h 44.2 km/h 46 % 0.0 mm
15:50 22.9 °C 11.0 °C 1011.1 hPa West 25.9 km/h 40.7 km/h 46 % 0.0 mm
15:55 22.8 °C 11.0 °C 1011.1 hPa West 40.4 km/h 40.7 km/h 47 % 0.0 mm
16:00 23.2 °C 12.0 °C 1010.0 hPa WSW 20.6 km/h 40.4 km/h 47 % 0.0 mm
16:05 22.8 °C 11.0 °C 1010.0 hPa SW 17.2 km/h 45.7 km/h 48 % 0.0 mm
16:10 23.0 °C 12.0 °C 1010.0 hPa WSW 26.7 km/h 45.7 km/h 49 % 0.0 mm
16:15 23.8 °C 13.0 °C 1011.1 hPa WNW 20.6 km/h 45.1 km/h 51 % 0.0 mm
16:20 23.5 °C 13.0 °C 1011.1 hPa WSW 41.4 km/h 41.4 km/h 50 % 0.0 mm
16:25 23.3 °C 13.0 °C 1011.1 hPa WSW 34.3 km/h 42.8 km/h 52 % 0.0 mm
16:30 22.6 °C 13.0 °C 1011.1 hPa West 31.7 km/h 46.5 km/h 52 % 0.0 mm
16:35 22.4 °C 13.0 °C 1011.1 hPa WSW 40.7 km/h 54.4 km/h 54 % 0.0 mm
16:40 22.4 °C 13.0 °C 1011.1 hPa SSW 26.2 km/h 54.4 km/h 54 % 0.0 mm
16:45 22.7 °C 13.0 °C 1011.1 hPa West 16.3 km/h 41.7 km/h 53 % 0.0 mm
16:50 23.2 °C 13.0 °C 1011.1 hPa WSW 39.6 km/h 41.7 km/h 51 % 0.0 mm
16:55 23.0 °C 12.0 °C 1011.1 hPa West 28.8 km/h 51.2 km/h 50 % 0.0 mm
17:00 23.0 °C 12.0 °C 1011.1 hPa SW 30.9 km/h 51.2 km/h 48 % 0.0 mm
17:05 23.2 °C 12.0 °C 1011.1 hPa West 27.4 km/h 41.7 km/h 49 % 0.0 mm
17:10 22.9 °C 11.0 °C 1011.1 hPa SW 20.6 km/h 42.8 km/h 47 % 0.0 mm
17:15 22.7 °C 11.0 °C 1011.1 hPa WSW 24.5 km/h 45.7 km/h 46 % 0.0 mm
17:20 22.7 °C 11.0 °C 1011.1 hPa West 31.7 km/h 45.7 km/h 46 % 0.0 mm
17:25 22.8 °C 11.0 °C 1011.1 hPa WSW 20.9 km/h 39.6 km/h 47 % 0.0 mm
17:30 22.5 °C 11.0 °C 1011.1 hPa WSW 19.8 km/h 41.4 km/h 46 % 0.0 mm
17:35 22.6 °C 11.0 °C 1011.1 hPa WSW 36.4 km/h 49.2 km/h 46 % 0.0 mm
17:40 23.0 °C 11.0 °C 1011.1 hPa WSW 23.8 km/h 51.2 km/h 46 % 0.0 mm
17:45 23.3 °C 11.0 °C 1010.0 hPa WSW 32.3 km/h 51.2 km/h 46 % 0.0 mm
17:50 22.7 °C 11.0 °C 1010.0 hPa West 28.5 km/h 38.5 km/h 47 % 0.0 mm
17:55 22.3 °C 11.0 °C 1010.0 hPa WSW 35.2 km/h 48.6 km/h 48 % 0.0 mm
18:00 22.2 °C 11.0 °C 1011.1 hPa WSW 21.2 km/h 48.6 km/h 48 % 0.0 mm
18:05 22.2 °C 11.0 °C 1011.1 hPa SSW 28.5 km/h 43.6 km/h 49 % 0.0 mm
18:10 22.1 °C 11.0 °C 1011.1 hPa WSW 34.3 km/h 40.7 km/h 50 % 0.0 mm
18:15 22.2 °C 12.0 °C 1011.1 hPa WNW 24.5 km/h 36.7 km/h 51 % 0.0 mm
18:20 22.0 °C 12.0 °C 1011.1 hPa WSW 42.2 km/h 42.2 km/h 51 % 0.0 mm
18:25 21.9 °C 12.0 °C 1011.1 hPa WSW 36.7 km/h 48.6 km/h 51 % 0.0 mm
18:30 21.8 °C 12.0 °C 1011.1 hPa WSW 27.7 km/h 48.6 km/h 52 % 0.0 mm
18:35 21.8 °C 12.0 °C 1011.1 hPa WSW 28.0 km/h 39.3 km/h 53 % 0.0 mm
18:40 21.7 °C 12.0 °C 1011.1 hPa West 28.0 km/h 41.4 km/h 54 % 0.0 mm
18:45 22.3 °C 13.0 °C 1011.1 hPa West 36.7 km/h 41.4 km/h 53 % 0.0 mm
18:50 22.1 °C 12.0 °C 1011.1 hPa WSW 36.0 km/h 39.3 km/h 53 % 0.0 mm
18:55 21.8 °C 11.0 °C 1011.1 hPa WSW 37.8 km/h 46.5 km/h 50 % 0.0 mm
19:00 21.7 °C 11.0 °C 1011.1 hPa WSW 31.7 km/h 46.5 km/h 51 % 0.0 mm
19:05 21.7 °C 11.0 °C 1011.1 hPa West 27.0 km/h 37.0 km/h 51 % 0.0 mm
19:11 21.8 °C 11.0 °C 1011.1 hPa West 18.3 km/h 42.5 km/h 51 % 0.0 mm
19:16 22.3 °C 12.0 °C 1011.1 hPa West 41.4 km/h 42.5 km/h 50 % 0.0 mm
19:21 22.3 °C 12.0 °C 1011.1 hPa WSW 21.2 km/h 41.4 km/h 52 % 0.0 mm
19:26 21.9 °C 12.0 °C 1012.1 hPa WSW 22.7 km/h 41.4 km/h 51 % 0.0 mm
19:31 21.8 °C 11.0 °C 1012.1 hPa WSW 20.6 km/h 42.2 km/h 51 % 0.0 mm
19:36 21.6 °C 12.0 °C 1012.1 hPa SW 35.2 km/h 42.2 km/h 52 % 0.0 mm
19:41 21.4 °C 12.0 °C 1012.1 hPa West 18.3 km/h 41.7 km/h 53 % 0.0 mm
19:46 21.2 °C 12.0 °C 1012.1 hPa West 15.4 km/h 36.0 km/h 54 % 0.0 mm
19:51 21.2 °C 12.0 °C 1012.1 hPa West 17.2 km/h 33.1 km/h 55 % 0.0 mm
19:56 21.3 °C 12.0 °C 1011.1 hPa West 20.9 km/h 33.5 km/h 55 % 0.0 mm
20:01 21.1 °C 12.0 °C 1011.1 hPa WSW 28.0 km/h 38.5 km/h 54 % 0.0 mm
20:06 21.0 °C 12.0 °C 1011.1 hPa West 16.9 km/h 38.5 km/h 55 % 0.0 mm
20:11 21.0 °C 12.0 °C 1011.1 hPa West 14.0 km/h 29.9 km/h 56 % 0.0 mm
20:16 21.1 °C 12.0 °C 1011.1 hPa WSW 33.5 km/h 36.4 km/h 55 % 0.0 mm
20:21 21.0 °C 12.0 °C 1011.1 hPa WSW 20.1 km/h 36.4 km/h 56 % 0.0 mm
20:26 20.9 °C 13.0 °C 1011.1 hPa WSW 15.4 km/h 33.5 km/h 58 % 0.0 mm
20:31 20.8 °C 12.0 °C 1011.1 hPa SSW 13.7 km/h 28.8 km/h 58 % 0.0 mm
20:36 20.7 °C 13.0 °C 1011.1 hPa WSW 19.8 km/h 25.6 km/h 59 % 0.0 mm
20:41 20.5 °C 13.0 °C 1011.1 hPa WSW 17.7 km/h 32.0 km/h 60 % 0.0 mm
20:46 20.4 °C 13.0 °C 1011.1 hPa WSW 22.4 km/h 32.0 km/h 61 % 0.0 mm
20:51 20.3 °C 13.0 °C 1011.1 hPa WSW 23.8 km/h 28.5 km/h 62 % 0.0 mm
20:56 20.2 °C 13.0 °C 1011.1 hPa WSW 25.3 km/h 26.2 km/h 62 % 0.0 mm
21:01 20.1 °C 13.0 °C 1011.1 hPa WSW 12.2 km/h 25.3 km/h 63 % 0.0 mm
21:06 20.0 °C 13.0 °C 1011.1 hPa WSW 20.9 km/h 27.7 km/h 64 % 0.0 mm
21:11 20.0 °C 13.0 °C 1011.1 hPa WSW 17.7 km/h 27.7 km/h 64 % 0.0 mm
21:17 19.9 °C 13.0 °C 1011.1 hPa SW 17.2 km/h 26.7 km/h 65 % 0.0 mm
21:22 19.8 °C 13.0 °C 1011.1 hPa WSW 16.9 km/h 26.7 km/h 66 % 0.0 mm
21:27 19.8 °C 13.0 °C 1011.1 hPa WSW 16.3 km/h 24.5 km/h 67 % 0.0 mm
21:32 19.7 °C 13.0 °C 1011.1 hPa WSW 10.1 km/h 27.4 km/h 67 % 0.0 mm
21:37 19.6 °C 14.0 °C 1011.1 hPa WSW 9.0 km/h 27.4 km/h 68 % 0.0 mm
21:42 19.5 °C 14.0 °C 1011.1 hPa West 25.3 km/h 28.0 km/h 68 % 0.0 mm
21:47 19.5 °C 14.0 °C 1011.1 hPa West 10.5 km/h 29.9 km/h 69 % 0.0 mm
21:52 19.4 °C 14.0 °C 1011.1 hPa WSW 13.7 km/h 29.9 km/h 70 % 0.0 mm
21:57 19.3 °C 14.0 °C 1011.1 hPa WNW 10.5 km/h 23.8 km/h 70 % 0.0 mm
22:02 19.2 °C 14.0 °C 1011.1 hPa West 9.7 km/h 23.8 km/h 70 % 0.0 mm
22:07 19.1 °C 14.0 °C 1011.1 hPa SW 16.6 km/h 21.9 km/h 71 % 0.0 mm
22:12 18.9 °C 14.0 °C 1011.1 hPa WSW 11.9 km/h 21.9 km/h 72 % 0.0 mm
22:17 18.9 °C 14.0 °C 1011.1 hPa West 12.6 km/h 16.9 km/h 72 % 0.0 mm
22:22 18.9 °C 14.0 °C 1011.1 hPa WSW 20.6 km/h 23.3 km/h 73 % 0.0 mm
22:27 18.8 °C 14.0 °C 1012.1 hPa West 17.7 km/h 23.3 km/h 73 % 0.0 mm
22:32 18.8 °C 14.0 °C 1012.1 hPa West 13.0 km/h 24.5 km/h 74 % 0.0 mm
22:37 18.7 °C 14.0 °C 1012.1 hPa West 17.2 km/h 24.5 km/h 74 % 0.0 mm
22:42 18.7 °C 14.0 °C 1012.1 hPa West 17.7 km/h 23.3 km/h 74 % 0.0 mm
22:47 18.7 °C 14.0 °C 1012.1 hPa WSW 17.2 km/h 22.4 km/h 74 % 0.0 mm
22:52 18.7 °C 14.0 °C 1012.1 hPa WSW 16.3 km/h 22.7 km/h 75 % 0.0 mm
22:57 18.6 °C 14.0 °C 1012.1 hPa WSW 6.1 km/h 22.7 km/h 75 % 0.0 mm
23:02 18.6 °C 14.0 °C 1012.1 hPa WSW 9.0 km/h 17.2 km/h 75 % 0.0 mm
23:07 18.5 °C 14.0 °C 1012.1 hPa SW 11.9 km/h 18.3 km/h 76 % 0.0 mm
23:12 18.5 °C 14.0 °C 1012.1 hPa West 16.3 km/h 20.1 km/h 76 % 0.0 mm
23:17 18.5 °C 14.0 °C 1012.1 hPa West 8.7 km/h 20.1 km/h 76 % 0.0 mm
23:22 18.5 °C 14.0 °C 1012.1 hPa West 13.0 km/h 19.1 km/h 76 % 0.0 mm
23:27 18.5 °C 14.0 °C 1012.1 hPa WSW 16.9 km/h 21.2 km/h 76 % 0.0 mm
23:32 18.5 °C 14.0 °C 1012.1 hPa West 12.2 km/h 26.7 km/h 74 % 0.0 mm
23:37 18.5 °C 14.0 °C 1012.1 hPa SSW 13.7 km/h 26.7 km/h 73 % 0.0 mm
23:43 18.4 °C 13.0 °C 1012.1 hPa WSW 20.1 km/h 21.2 km/h 73 % 0.0 mm
23:48 18.4 °C 13.0 °C 1012.1 hPa SSW 14.0 km/h 20.1 km/h 73 % 0.0 mm
23:53 18.4 °C 13.0 °C 1012.1 hPa WSW 15.8 km/h 17.2 km/h 72 % 0.0 mm
23:58 18.4 °C 13.0 °C 1012.1 hPa West 10.5 km/h 19.5 km/h 72 % 0.0 mm
Le Gheer Warneton
Courtoisie de Weather Underground - 2.25 mb

Mise a jour : 18/12/2017 04:04:13
Généré par Cumulus 1.9.4 (1099)